Вернуться в каталог

STARLINK-33763

АктивенСвязьVLEO
NORAD 63452·PAYLOAD·🇺🇸 United States

Запущен Apr 4, 2025 с Vandenberg Space Force Base

Loading…

Ближайшие Пролёты (ближайшие 24 часа)

TLE

СвежийSource: CelesTrak SupGP

Эпоха: Sep 14, 2026, 13:56 UTC

1 63452C 25069V   26257.58104167 -.00016603  00000+0 -49069-3 0  2571
2 63452  53.1590 337.5101 0001333  77.5006 201.2481 15.34388687    12

Отслеживайте STARLINK-33763 в реальном времени с AllMySat

Download on the App Store